Year,Month,Day,Hour,Minute,Value (Times are PST for temperature in C)
2012,11,23,10,08,6.90
2012,11,23,10,09,6.90
2012,11,23,10,10,7.00
2012,11,23,10,11,7.00
2012,11,23,10,12,7.10
2012,11,23,10,13,7.10
2012,11,23,10,14,7.20
2012,11,23,10,15,7.20
2012,11,23,10,16,7.20
2012,11,23,10,17,7.20
2012,11,23,10,18,7.20
2012,11,23,10,19,7.20
2012,11,23,10,20,7.20
2012,11,23,10,21,7.20
2012,11,23,10,22,7.20
2012,11,23,10,23,7.20
2012,11,23,10,24,7.20
2012,11,23,10,25,7.20
2012,11,23,10,26,7.30
2012,11,23,10,27,7.30
2012,11,23,10,28,7.30
2012,11,23,10,29,7.40
2012,11,23,10,30,7.40
2012,11,23,10,31,7.40
2012,11,23,10,32,7.40
2012,11,23,10,33,7.40
2012,11,23,10,34,7.40
2012,11,23,10,35,7.40
2012,11,23,10,36,7.40
2012,11,23,10,37,7.40
2012,11,23,10,38,7.40
2012,11,23,10,39,7.40
2012,11,23,10,40,7.40
2012,11,23,10,41,7.30
2012,11,23,10,42,7.40
2012,11,23,10,43,7.30
2012,11,23,10,44,7.30
2012,11,23,10,45,7.40
2012,11,23,10,46,7.40
2012,11,23,10,47,7.40
2012,11,23,10,48,7.40
2012,11,23,10,49,7.40
2012,11,23,10,50,7.40
2012,11,23,10,51,7.40
2012,11,23,10,52,7.40
2012,11,23,10,53,7.50
2012,11,23,10,54,7.50
2012,11,23,10,55,7.50
2012,11,23,10,56,7.50
2012,11,23,10,57,7.50
2012,11,23,10,58,7.50
2012,11,23,10,59,7.40
2012,11,23,11,00,7.50
2012,11,23,11,01,7.50
2012,11,23,11,02,7.50
2012,11,23,11,03,7.50
2012,11,23,11,04,7.50
2012,11,23,11,05,7.50
2012,11,23,11,06,7.40
2012,11,23,11,07,7.40
2012,11,23,11,08,7.40
2012,11,23,11,09,7.40
2012,11,23,11,10,7.40
2012,11,23,11,11,7.40
2012,11,23,11,12,7.40
2012,11,23,11,13,7.40
2012,11,23,11,14,7.40
2012,11,23,11,15,7.40
2012,11,23,11,16,7.50
2012,11,23,11,17,7.50
2012,11,23,11,18,7.50
2012,11,23,11,19,7.50
2012,11,23,11,20,7.50
2012,11,23,11,21,7.50
2012,11,23,11,22,7.50
2012,11,23,11,23,7.50
2012,11,23,11,24,7.60
2012,11,23,11,25,7.50
2012,11,23,11,26,7.50
2012,11,23,11,27,7.50
2012,11,23,11,28,7.50
2012,11,23,11,29,7.50
2012,11,23,11,30,7.50
2012,11,23,11,31,7.50
2012,11,23,11,32,7.50
2012,11,23,11,33,7.60
2012,11,23,11,34,7.60
2012,11,23,11,35,7.70
2012,11,23,11,36,7.70
2012,11,23,11,37,7.70
2012,11,23,11,38,7.70
2012,11,23,11,39,7.70
2012,11,23,11,40,7.80
2012,11,23,11,41,7.80
2012,11,23,11,42,7.80
2012,11,23,11,43,7.80
2012,11,23,11,44,7.80
2012,11,23,11,45,7.80
2012,11,23,11,46,7.80
2012,11,23,11,47,7.80
2012,11,23,11,48,7.80
2012,11,23,11,49,7.90
2012,11,23,11,50,7.90
2012,11,23,11,51,7.90
2012,11,23,11,52,7.90
2012,11,23,11,53,7.90
2012,11,23,11,54,7.90
2012,11,23,11,55,7.80
2012,11,23,11,56,7.70
2012,11,23,11,57,7.70
2012,11,23,11,58,7.70
2012,11,23,11,59,7.70
2012,11,23,12,00,7.70
2012,11,23,12,01,7.70
2012,11,23,12,02,7.70
2012,11,23,12,03,7.70
2012,11,23,12,04,7.70
2012,11,23,12,05,7.50
2012,11,23,12,06,7.60
2012,11,23,12,07,7.60
2012,11,23,12,08,7.60
2012,11,23,12,09,7.60
2012,11,23,12,10,7.60
2012,11,23,12,11,7.70
2012,11,23,12,12,7.80
2012,11,23,12,13,7.80
2012,11,23,12,14,7.90
2012,11,23,12,15,7.90
2012,11,23,12,16,8.00
2012,11,23,12,17,8.10
2012,11,23,12,18,8.20
2012,11,23,12,19,8.30
2012,11,23,12,20,8.30
2012,11,23,12,21,8.20
2012,11,23,12,22,8.20
2012,11,23,12,23,8.20
2012,11,23,12,24,8.20
2012,11,23,12,25,8.30
2012,11,23,12,26,8.30
2012,11,23,12,27,8.30
2012,11,23,12,28,8.30
2012,11,23,12,29,8.40
2012,11,23,12,30,8.40
2012,11,23,12,31,8.40
2012,11,23,12,32,8.40
2012,11,23,12,33,8.40
2012,11,23,12,34,8.40
2012,11,23,12,35,8.40
2012,11,23,12,36,8.30
2012,11,23,12,37,8.20
2012,11,23,12,38,8.20
2012,11,23,12,39,8.20
2012,11,23,12,40,8.20
2012,11,23,12,41,8.20
2012,11,23,12,42,8.20
2012,11,23,12,43,8.20
2012,11,23,12,44,8.20
2012,11,23,12,45,8.20
2012,11,23,12,46,8.30
2012,11,23,12,47,8.30
2012,11,23,12,48,8.30
2012,11,23,12,49,8.30
2012,11,23,12,50,8.30
2012,11,23,12,51,8.30
2012,11,23,12,52,8.30
2012,11,23,12,53,8.20
2012,11,23,12,54,8.20
2012,11,23,12,55,8.10
2012,11,23,12,56,8.10
2012,11,23,12,57,8.00
2012,11,23,12,58,8.00
2012,11,23,12,59,8.00
2012,11,23,13,00,8.00
2012,11,23,13,01,8.00
2012,11,23,13,02,8.10
2012,11,23,13,03,8.10
2012,11,23,13,04,8.10
2012,11,23,13,05,8.10
2012,11,23,13,06,8.10
2012,11,23,13,07,8.10
2012,11,23,13,08,8.00
2012,11,23,13,09,8.00
2012,11,23,13,10,7.90
2012,11,23,13,11,7.80
2012,11,23,13,12,7.80
2012,11,23,13,13,7.70
2012,11,23,13,14,7.70
2012,11,23,13,15,7.70
2012,11,23,13,16,7.70
2012,11,23,13,17,7.60
2012,11,23,13,18,7.60
2012,11,23,13,19,7.60
2012,11,23,13,20,7.60
2012,11,23,13,21,7.70
2012,11,23,13,22,7.70
2012,11,23,13,23,7.80
2012,11,23,13,24,7.80
2012,11,23,13,25,7.90
2012,11,23,13,26,8.00
2012,11,23,13,27,8.10
2012,11,23,13,28,8.20
2012,11,23,13,29,8.20
2012,11,23,13,30,8.20
2012,11,23,13,31,8.30
2012,11,23,13,32,8.30
2012,11,23,13,33,8.30
2012,11,23,13,34,8.30
2012,11,23,13,35,8.30
2012,11,23,13,36,8.30
2012,11,23,13,37,8.30
2012,11,23,13,38,8.30
2012,11,23,13,39,8.30
2012,11,23,13,40,8.30
2012,11,23,13,41,8.30
2012,11,23,13,42,8.30
2012,11,23,13,43,8.30
2012,11,23,13,44,8.30
2012,11,23,13,45,8.30
2012,11,23,13,46,8.40
2012,11,23,13,47,8.30
2012,11,23,13,48,8.30
2012,11,23,13,49,8.30
2012,11,23,13,50,8.30
2012,11,23,13,51,8.30
2012,11,23,13,52,8.30
2012,11,23,13,53,8.30
2012,11,23,13,54,8.30
2012,11,23,13,55,8.30
2012,11,23,13,56,8.30
2012,11,23,13,57,8.30
2012,11,23,13,58,8.30
2012,11,23,13,59,8.30
2012,11,23,14,00,8.30
